Weather History for KSUA - March, 2013

Change the Weather History Date:

Saturday, March 30, 2013

  Actual Average Record
Temperature  
Mean Temperature 63 °F -  
Max Temperature 73 °F 82 °F 91 °F (1975)
Min Temperature 53 °F 64 °F 48 °F (1955)
Degree Days  
Heating Degree Days 2    
Growing Degree Days 13 (Base 50)    
Moisture  
Dew Point 49 °F    
Average Humidity 65    
Maximum Humidity 94    
Minimum Humidity 36    
Precipitation  
Precipitation 0.00 in - - ()
Sea Level Pressure  
Sea Level Pressure 30.24 in    
Wind  
Wind Speed 3 mph (SE)    
Max Wind Speed 16 mph    
Max Gust Speed 21 mph    
Visibility 9 miles    
Events      
Averages and records for this station are not official NWS values.
T = Trace of Precipitation, MM = Missing Value Source: NWS Daily Summary

Daily Weather History Graph

Daily Weather History Graph

Search for Another Location

Airport or City:

Trip Planner

Search our weather history database for the weather conditions in past years. The results will help you decide how hot, cold, wet, or windy it might be!

Date:

Astronomy

Mar. 30, 2013 Rise Set
Actual Time 7:13 AM EDT 7:37 PM EDT
Civil Twilight 6:50 AM EDT 8:00 PM EDT
Nautical Twilight 6:22 AM EDT 8:28 PM EDT
Astronomical Twilight 5:55 AM EDT 8:55 PM EDT
Moon 11:20 PM EDT (3/30) 9:27 AM EDT (3/30)
Length of Visible Light 13h 10m
Length of Day
12h 23m
Waning Gibbous, 86% of the Moon is Illuminated
Mar 30
Waning Gibbous
Apr 3
Last Quarter
Apr 10
New
Apr 18
First Quarter
Apr 25
Full

Hourly Weather History & Observations

Time (EDT) Temp. Dew Point Humidity Pressure Visibility Wind Dir Wind Speed Gust Speed Precip Events Conditions
12:15 AM 60.8 °F 48.2 °F 63% 30.27 in 10.0 mi Calm Calm - N/A   Clear
12:35 AM 59.0 °F 48.2 °F 67% 30.27 in 10.0 mi Calm Calm - N/A   Clear
12:55 AM 59.0 °F 48.2 °F 67% 30.27 in 10.0 mi Calm Calm - N/A   Clear
1:15 AM 59.0 °F 50.0 °F 72% 30.26 in 10.0 mi Calm Calm - N/A   Clear
1:35 AM 59.0 °F 50.0 °F 72% 30.26 in 10.0 mi Calm Calm - N/A   Clear
2:15 AM 59.0 °F 50.0 °F 72% 30.25 in 10.0 mi Calm Calm - N/A   Clear
2:35 AM 59.0 °F 50.0 °F 72% 30.25 in 10.0 mi Calm Calm - N/A   Clear
2:55 AM 55.4 °F 50.0 °F 82% 30.25 in 10.0 mi Calm Calm - N/A   Clear
3:15 AM 55.4 °F 50.0 °F 82% 30.24 in 10.0 mi Calm Calm - N/A   Clear
3:35 AM 55.4 °F 50.0 °F 82% 30.24 in 10.0 mi Calm Calm - N/A   Clear
3:55 AM 55.4 °F 50.0 °F 82% 30.24 in 10.0 mi Calm Calm - N/A   Clear
4:15 AM 55.4 °F 50.0 °F 82% 30.24 in 10.0 mi Calm Calm - N/A   Clear
4:35 AM 55.4 °F 50.0 °F 82% 30.24 in 10.0 mi Calm Calm - N/A   Clear
4:55 AM 53.6 °F 50.0 °F 88% 30.24 in 10.0 mi Calm Calm - N/A   Clear
5:15 AM 53.6 °F 50.0 °F 88% 30.23 in 10.0 mi Calm Calm - N/A   Clear
5:35 AM 53.6 °F 50.0 °F 88% 30.24 in 10.0 mi Calm Calm - N/A   Clear
5:55 AM 53.6 °F 50.0 °F 88% 30.24 in 10.0 mi Calm Calm - N/A   Clear
6:15 AM 53.6 °F 51.8 °F 94% 30.24 in 10.0 mi Calm Calm - N/A   Clear
6:47 AM 55.4 °F 51.8 °F 88% 30.24 in 7.0 mi Calm Calm - N/A   Scattered Clouds
7:47 AM 55.4 °F 51.8 °F 88% 30.26 in 7.0 mi Calm Calm - N/A   Scattered Clouds
8:47 AM 60.8 °F 55.4 °F 82% 30.29 in 7.0 mi Calm Calm - N/A   Scattered Clouds
9:47 AM 71.6 °F 48.2 °F 43% 30.28 in 7.0 mi SSE 5.8 mph - N/A   Scattered Clouds
11:47 AM 73.4 °F 44.6 °F 36% 30.29 in 7.0 mi ESE 11.5 mph - N/A   Scattered Clouds
12:47 PM 73.4 °F 44.6 °F 36% 30.28 in 10.0 mi East 11.5 mph - N/A   Scattered Clouds
1:55 PM 73.4 °F 44.6 °F 36% 30.24 in 7.0 mi ESE 13.8 mph - N/A   Scattered Clouds
2:50 PM 73.4 °F 44.6 °F 36% 30.23 in 7.0 mi East 12.7 mph 19.6 mph N/A   Scattered Clouds
3:47 PM 73.4 °F 44.6 °F 36% 30.21 in 7.0 mi East 13.8 mph 19.6 mph N/A   Scattered Clouds
4:47 PM 73.4 °F 44.6 °F 36% 30.20 in 7.0 mi ESE 16.1 mph 20.7 mph N/A   Scattered Clouds
5:47 PM 71.6 °F 44.6 °F 38% 30.19 in 10.0 mi ESE 12.7 mph - N/A   Partly Cloudy
6:47 PM 69.8 °F 44.6 °F 40% 30.19 in 10.0 mi ESE 12.7 mph - N/A   Partly Cloudy
8:15 PM 64.4 °F 44.6 °F 49% 30.20 in 10.0 mi SE 5.8 mph - N/A   Clear
8:35 PM 64.4 °F 46.4 °F 52% 30.20 in 10.0 mi SE 5.8 mph - N/A   Clear
8:55 PM 64.4 °F 46.4 °F 52% 30.21 in 10.0 mi SE 5.8 mph - N/A   Clear
9:15 PM 62.6 °F 46.4 °F 55% 30.21 in 10.0 mi SE 5.8 mph - N/A   Clear
9:35 PM 64.4 °F 48.2 °F 56% 30.21 in 10.0 mi SE 4.6 mph - N/A   Clear
9:55 PM 64.4 °F 50.0 °F 59% 30.21 in 10.0 mi SSE 4.6 mph - N/A   Clear
10:15 PM 64.4 °F 50.0 °F 59% 30.21 in 10.0 mi SE 5.8 mph - N/A   Clear
10:35 PM 64.4 °F 50.0 °F 59% 30.22 in 10.0 mi SE 5.8 mph - N/A   Clear
10:55 PM 62.6 °F 51.8 °F 68% 30.22 in 10.0 mi SE 5.8 mph - N/A   Clear
11:15 PM 64.4 °F 51.8 °F 64% 30.22 in 10.0 mi SE 4.6 mph - N/A   Clear
11:35 PM 64.4 °F 51.8 °F 64% 30.21 in 10.0 mi SE 4.6 mph - N/A   Clear
11:55 PM 64.4 °F 51.8 °F 64% 30.21 in 10.0 mi SSE 6.9 mph - N/A   Clear